This demonstration page uses our WeatherBlox Daily Observations layout. Learn more.

Hourly Observations for August 22, 2018

Temp ( °F °C ) Dew Point ( °F °C ) Humidity (%) Winds ( mph kmh ) Pressure ( in mb ) Visibility ( mi km ) Precip ( " mm )
12:15 am 00:15 Clear 56 13.2 55 12.7 97 97 Calm 30.27 1025 10 16.09344 0 0
12:35 am 00:35 Clear 56 13.3 55 12.9 97 97 Calm 30.27 1025 10 16.09344 0 0
12:55 am 00:55 Clear 56 13.1 55 12.8 98 98 NNE 3 6 30.27 1025 10 16.09344 0 0
1:15 am 01:15 Partly Cloudy 56 13.2 55 13 99 99 Calm 30.3 1026 10 16.09344 0 0
1:35 am 01:35 Cloudy 56 13.6 56 13.2 97 97 Calm 30.3 1026 10 16.09344 0 0
1:55 am 01:55 Cloudy 56 13.5 56 13.2 98 98 Calm 30.3 1026 10 16.09344 0 0
2:15 am 02:15 Mostly Cloudy 57 13.7 56 13.6 99 99 Calm 30.27 1025 10 16.09344 0 0
2:35 am 02:35 Mostly Cloudy 57 14 57 13.7 98 98 Calm 30.3 1026 10 16.09344 0 0
2:55 am 02:55 Partly Cloudy 57 13.7 56 13.6 99 99 Calm 30.3 1026 10 16.09344 0 0
3:15 am 03:15 Clear 56 13.6 56 13.6 100 100 Calm 30.27 1025 7 11.265408 0 0
3:35 am 03:35 Clear 56 13.1 56 13.1 100 100 NNE 3 6 30.27 1025 7 11.265408 0 0
3:55 am 03:55 Clear with Mist and Fog 55 12.5 55 12.5 100 100 NNE 5 7 30.27 1025 5 8.04672 0 0
4:15 am 04:15 Clear with Mist and Fog 54 12.4 54 12.4 100 100 ENE 5 7 30.27 1025 5 8.04672 0 0
4:35 am 04:35 Clear 55 12.7 55 12.7 100 100 Calm 30.27 1025 7 11.265408 0 0
4:55 am 04:55 Clear with Mist and Fog 55 12.8 55 12.8 100 100 NE 3 6 30.27 1025 5 8.04672 0 0
5:15 am 05:15 Partly Cloudy 56 13.2 56 13.2 100 100 NE 6 9 30.27 1025 7 11.265408 0 0
5:35 am 05:35 Clear 56 13.5 56 13.5 100 100 ENE 5 7 30.27 1025 7 11.265408 0 0
5:55 am 05:55 Clear 56 13.5 56 13.5 100 100 ENE 3 6 30.27 1025 7 11.265408 0 0
6:15 am 06:15 Clear 56 13.5 56 13.5 100 100 Calm 30.27 1025 7 11.265408 0 0
6:35 am 06:35 Clear 56 13.6 56 13.5 99 99 Calm 30.27 1025 7 11.265408 0 0
6:55 am 06:55 Clear 56 13.5 56 13.5 100 100 Calm 30.27 1025 7 11.265408 0 0
7:15 am 07:15 Sunny 56 13.6 56 13.6 100 100 E 3 6 30.27 1025 7 11.265408 0 0
7:35 am 07:35 Sunny 57 13.7 56 13.6 99 99 Calm 30.27 1025 7 11.265408 0 0
7:55 am 07:55 Sunny 57 14 56 13.6 97 97 Calm 30.3 1026 7 11.265408 0 0
8:15 am 08:15 Sunny 58 14.2 57 13.7 97 97 Calm 30.3 1026 7 11.265408 0 0
8:35 am 08:35 Mostly Cloudy 58 14.3 57 14 98 98 Calm 30.3 1026 7 11.265408 0 0
8:55 am 08:55 Cloudy 58 14.6 57 14 96 96 ESE 3 6 30.3 1026 7 11.265408 0 0
9:15 am 09:15 Cloudy 59 15 58 14.3 96 96 ESE 3 6 30.3 1026 7 11.265408 0 0
9:35 am 09:35 Cloudy 60 15.4 58 14.6 95 95 SSE 6 9 30.3 1026 10 16.09344 0 0
9:55 am 09:55 Partly Cloudy 60 15.8 59 14.8 94 94 SSE 5 7 30.27 1025 10 16.09344 0 0
10:15 am 10:15 Sunny 61 16.1 58 14.6 91 91 SSE 7 11 30.3 1026 10 16.09344 0 0
10:35 am 10:35 Sunny 62 16.5 58 14.5 88 88 SE 8 13 30.27 1025 10 16.09344 0 0
10:55 am 10:55 Sunny 63 17.1 57 14.1 83 83 SSE 8 13 30.27 1025 10 16.09344 0 0
11:15 am 11:15 Sunny 64 17.7 57 13.7 78 78 SSE 9 15 30.27 1025 10 16.09344 0 0
11:35 am 11:35 Sunny 64 17.6 57 13.9 79 79 SSE 8 13 30.27 1025 10 16.09344 0 0
11:55 am 11:55 Sunny 64 18 58 14.2 79 79 S 6 9 30.27 1025 10 16.09344 0 0
12:15 pm 12:15 Sunny 64 18 58 14.2 79 79 SSE 6 9 30.27 1025 10 16.09344 0 0
12:35 pm 12:35 Sunny 64 17.8 57 13.8 78 78 SSE 6 9 30.27 1025 10 16.09344 0 0
12:55 pm 12:55 Sunny 64 17.9 58 14.2 79 79 SE 5 7 30.27 1025 10 16.09344 0 0
1:15 pm 13:15 Sunny 64 17.9 57 13.9 78 78 SE 6 9 30.24 1024 10 16.09344 0 0
1:35 pm 13:35 Partly Cloudy 65 18.5 58 14.7 79 79 SE 6 9 30.24 1024 10 16.09344 0 0
1:55 pm 13:55 Cloudy 65 18.2 58 14.3 78 78 SSE 7 11 30.24 1024 10 16.09344 0 0
2:15 pm 14:15 Cloudy 65 18.1 58 14.6 80 80 SSE 5 7 30.24 1024 10 16.09344 0 0
2:35 pm 14:35 Cloudy 65 18.1 59 14.9 82 82 SSE 6 9 30.21 1023 10 16.09344 0 0
2:55 pm 14:55 Cloudy 65 18.5 59 15.1 81 81 SSE 8 13 30.18 1022 10 16.09344 0 0
3:15 pm 15:15 Cloudy 65 18.5 60 15.4 82 82 SSE 7 11 30.18 1022 10 16.09344 0 0
3:35 pm 15:35 Cloudy 65 18.5 60 15.5 83 83 SE 8 13 30.15 1021 10 16.09344 0 0
3:55 pm 15:55 Cloudy 65 18.6 60 15.6 83 83 SSE 7 11 30.15 1021 10 16.09344 0 0
4:15 pm 16:15 Cloudy 65 18.6 60 15.7 83 83 SSE 7 11 30.15 1021 10 16.09344 0 0
4:35 pm 16:35 Cloudy 66 18.7 60 15.6 82 82 SSE 7 11 30.15 1021 10 16.09344 0 0
4:55 pm 16:55 Cloudy 66 18.8 60 15.4 81 81 S 6 9 30.15 1021 10 16.09344 0 0
5:15 pm 17:15 Cloudy 66 18.7 59 15.1 80 80 SSE 7 11 30.12 1020 10 16.09344 0 0
5:35 pm 17:35 Cloudy 66 18.7 60 15.5 82 82 S 8 13 30.12 1020 10 16.09344 0 0
5:55 pm 17:55 Cloudy 65 18.5 60 15.4 82 82 S 7 11 30.12 1020 10 16.09344 0 0
6:15 pm 18:15 Cloudy 65 18.5 60 15.5 83 83 S 5 7 30.12 1020 10 16.09344 0 0
6:35 pm 18:35 Cloudy 65 18.3 59 14.9 81 81 SSE 6 9 30.09 1019 10 16.09344 0 0
6:55 pm 18:55 Cloudy 65 18.5 59 14.9 80 80 SSE 6 9 30.09 1019 10 16.09344 0 0
7:15 pm 19:15 Cloudy 65 18.3 59 15.2 82 82 SSE 7 11 30.09 1019 10 16.09344 0 0
7:35 pm 19:35 Cloudy 65 18.1 59 15 82 82 SE 3 6 30.06 1018 10 16.09344 0 0
7:55 pm 19:55 Cloudy 64 17.9 60 15.5 86 86 SE 3 6 30.06 1018 10 16.09344 0 0
8:15 pm 20:15 Cloudy 64 17.8 60 15.8 88 88 SSE 5 7 30.06 1018 10 16.09344 0 0
8:35 pm 20:35 Cloudy 64 17.7 60 15.6 88 88 SSE 6 9 30.06 1018 10 16.09344 0 0
8:55 pm 20:55 Cloudy 64 17.5 60 15.6 89 89 SSE 5 7 30.06 1018 10 16.09344 0 0
9:15 pm 21:15 Cloudy 64 17.6 60 15.6 88 88 SSE 5 7 30.06 1018 10 16.09344 0 0
9:35 pm 21:35 Cloudy 64 17.5 60 15.6 89 89 S 5 7 30.06 1018 10 16.09344 0 0
9:55 pm 21:55 Cloudy 64 17.5 60 15.8 90 90 SSE 3 6 30.06 1018 10 16.09344 0 0
10:15 pm 22:15 Cloudy 64 17.5 61 16 91 91 SSE 5 7 30.06 1018 10 16.09344 0 0
10:35 pm 22:35 Cloudy 64 17.5 61 16.1 92 92 SSE 5 7 30.06 1018 10 16.09344 0 0
10:55 pm 22:55 Cloudy 64 17.7 61 16.3 92 92 S 8 13 30.06 1018 10 16.09344 0 0
11:15 pm 23:15 Cloudy 64 17.8 62 16.5 92 92 SSE 7 11 30.06 1018 10 16.09344 0 0
11:35 pm 23:35 Cloudy 64 17.7 62 16.6 93 93 SSE 7 11 30.06 1018 7 11.265408 0 0
11:55 pm 23:55 Cloudy 64 17.7 62 16.7 94 94 SSE 5 7 30.06 1018 10 16.09344 0 0

Powered by AerisWeather